Notices

What's New in latest Release from April 7th, 2021:

- Updated Glossary, including Speed of Maximum Gust, and Total Hourly Precipitation

- Updated national and regional climate services offices contacts and prices information

- Addition of station inventory lists for 1981-2010, 1971-2000, and 1961-1990 Normals.

If you haven't already, please take our survey and provide feedback about our website: https://eccc.sondage-survey.ca/f/LanguageSelection.aspx?s=442ca660-fcf1-47c0-95a9-59707d6fd709

Hourly Data Report for January 14, 2021

EDMUNDSTON
NEW BRUNSWICK
Current Station Operator: ECCC - MSC

47°25'00.000" N
68°19'28.040" W
154.20 m
8101303
71590
ERM

Download Data

Hourly Data (January 2021)
Hourly Data Report for January 14, 2021
TIME
LST
Temp Definition
°C
Dew Point Definition
°C
Rel Hum Definition
%
Precip. Amount Definition
mm

Wind Dir Definition
10's deg

Wind Spd Definition
km/h
Visibility Definition
km
Stn Press Definition
kPa
Hmdx Definition


Wind Chill Definition


Weather Definition


00:00 -2.1 LegendMM LegendMM 0.0 14 5   99.13   -4 LegendNANA
01:00 -2.2 LegendMM LegendMM 0.0 13 6   99.09   -5 LegendNANA
02:00 -2.3 LegendMM LegendMM 0.0 13 4   99.11   -4 LegendNANA
03:00 -2.3 LegendMM LegendMM 0.0 13 7   99.13   -5 LegendNANA
04:00 -2.7 LegendMM LegendMM 0.0 14 6   99.11   -5 LegendNANA
05:00 -2.9 LegendMM LegendMM 0.0 13 4   99.08   -4 LegendNANA
06:00 -3.1 LegendMM LegendMM 0.0 14 5   99.06   -5 LegendNANA
07:00 -3.1 LegendMM LegendMM 0.0 15 5   99.10   -5 LegendNANA
08:00 -3.4 LegendMM LegendMM 0.0 14 2   99.12   -4 LegendNANA
09:00 -3.6 LegendMM LegendMM 0.0 11 1   99.18   -4 LegendNANA
10:00 -2.7 LegendMM LegendMM 0.0 14 1   99.20   -3 LegendNANA
11:00 -2.4 LegendMM LegendMM 0.0 16 7   99.22   -5 LegendNANA
12:00 -2.0 LegendMM LegendMM 0.0 14 6   99.18   -4 LegendNANA
13:00 -1.4 LegendMM LegendMM 0.0 13 5   99.14   -3 LegendNANA
14:00 -0.6 LegendMM LegendMM 0.0 13 5   99.09   -2 LegendNANA
15:00 -0.3 LegendMM LegendMM 0.0 12 4   99.13   -2 LegendNANA
16:00 -0.3 LegendMM LegendMM 0.0 14 6   99.16   -2 LegendNANA
17:00 -0.5 LegendMM LegendMM 0.0 14 4   99.22   -2 LegendNANA
18:00 -1.1 LegendMM LegendMM 0.0   0   99.29     LegendNANA
19:00 -1.5 LegendMM LegendMM 0.0   0   99.35     LegendNANA
20:00 -2.0 LegendMM LegendMM 0.0   0   99.43     LegendNANA
21:00 -2.3 LegendMM LegendMM 0.0 3 2   99.46   -3 LegendNANA
22:00 -3.1 LegendMM LegendMM 0.0   0   99.48     LegendNANA
23:00 -3.6 LegendMM LegendMM 0.0 0 1   99.49   -4 LegendNANA

Notes on Data Quality.

Legend

  • E = Estimated
  • M = Missing
  • NA = Not Available*
  • [empty] = Indicates an unobserved value
Date modified: